Fort Campbell, KY

7:25 PM CDT on March 25, 2017 (GMT -0500)
Campbell Army Air Field

Weather History for KHOP - March, 2013

Change the Weather History Date:

Monday, March 11, 2013

  Actual Average Record
Temperature  
Mean Temperature 46 °F -  
Max Temperature 54 °F 54 °F 77 °F (2014)
Min Temperature 38 °F 34 °F 17 °F (1998)
Degree Days  
Heating Degree Days 18    
Moisture  
Dew Point 44 °F    
Average Humidity 93    
Maximum Humidity 100    
Minimum Humidity 69    
Precipitation  
Precipitation 1.13 in - - ()
Sea Level Pressure  
Sea Level Pressure 29.83 in    
Wind  
Wind Speed 12 mph (SW)    
Max Wind Speed 23 mph    
Max Gust Speed 26 mph    
Visibility 8 miles    
Events Rain    
Averages and records for this station are not official NWS values.
T = Trace of Precipitation, MM = Missing Value Source: NWS Daily Summary

Daily Weather History Graph

Daily Weather History Graph

Search for Another Location

Airport or City:

Trip Planner

Search our weather history database for the weather conditions in past years. The results will help you decide how hot, cold, wet, or windy it might be!

Date:

Astronomy

Mar. 11, 2013 Rise Set
Actual Time 7:06 AM CDT 6:53 PM CDT
Civil Twilight 6:40 AM CDT 7:19 PM CDT
Nautical Twilight 6:10 AM CDT 7:49 PM CDT
Astronomical Twilight 5:40 AM CDT 8:19 PM CDT
Moon 6:40 AM CDT (3/11) 7:04 PM CDT (3/11)
Length of Visible Light 12h 39m
Length of Day
11h 47m
Waning Crescent, 0% of the Moon is Illuminated
Mar 11
Waning Crescent
Mar 11
New
Mar 19
First Quarter
Mar 27
Full
Apr 2
Last Quarter

Hourly Weather History & Observations

Time (CDT) Temp. Windchill Dew Point Humidity Pressure Visibility Wind Dir Wind Speed Gust Speed Precip Events Conditions
12:07 AM 55.4 °F - 55.4 °F 100% 29.80 in 4.0 mi SW 11.5 mph - N/A Rain Rain
12:09 AM 55.4 °F - 55.4 °F 100% 29.80 in 4.0 mi SSW 13.8 mph - N/A Rain Rain
12:17 AM 55.4 °F - 55.4 °F 100% 29.81 in 6.0 mi SW 15.0 mph - N/A Rain Rain
12:55 AM 54.3 °F - 54.3 °F 100% 29.79 in 6.0 mi SW 13.8 mph 19.6 mph 0.19 in Rain Rain
1:02 AM 53.6 °F - 53.6 °F 100% 29.79 in 6.0 mi SW 15.0 mph 19.6 mph N/A Rain Light Rain
1:23 AM 53.6 °F - 53.6 °F 100% 29.80 in 4.0 mi SW 11.5 mph - N/A Rain Heavy Rain
1:25 AM 53.6 °F - 53.6 °F 100% 29.80 in 3.0 mi SW 12.7 mph - N/A Rain Heavy Rain
1:53 AM 53.6 °F - 53.6 °F 100% 29.81 in 5.0 mi SW 11.5 mph - N/A Rain Light Rain
1:55 AM 52.7 °F - 52.7 °F 100% 29.82 in 4.0 mi SW 12.7 mph - 0.19 in Rain Light Rain
2:04 AM 51.8 °F - 51.8 °F 100% 29.81 in 4.0 mi SSW 10.4 mph - N/A Rain Light Rain
2:33 AM 51.8 °F - 51.8 °F 100% 29.80 in 4.0 mi SSW 8.1 mph - N/A Rain Rain
2:46 AM 51.8 °F - 51.8 °F 100% 29.80 in 4.0 mi SSW 11.5 mph - N/A Rain Light Rain
2:49 AM 51.8 °F - 51.8 °F 100% 29.81 in 5.0 mi SSW 11.5 mph - N/A Rain Light Rain
2:55 AM 51.6 °F - 51.6 °F 100% 29.81 in 5.0 mi SSW 9.2 mph - 0.20 in Rain Light Rain
3:19 AM 51.8 °F - 51.8 °F 100% 29.78 in 6.0 mi South 8.1 mph - N/A Rain Light Rain
3:36 AM 51.8 °F - 51.8 °F 100% 29.80 in 4.0 mi South 10.4 mph - N/A Rain Rain
3:40 AM 51.8 °F - 51.8 °F 100% 29.81 in 4.0 mi South 8.1 mph - N/A Rain Rain
3:55 AM 50.7 °F - 50.7 °F 100% 29.80 in 4.0 mi South 8.1 mph - 0.19 in Rain Rain
3:57 AM 50.0 °F - 50.0 °F 100% 29.80 in 4.0 mi South 8.1 mph - N/A Rain Rain
4:07 AM 50.0 °F - 50.0 °F 100% 29.78 in 5.0 mi South 8.1 mph - N/A Rain Rain
4:21 AM 50.0 °F - 50.0 °F 100% 29.77 in 4.0 mi SSE 8.1 mph - N/A Rain Rain
4:23 AM 50.0 °F - 50.0 °F 100% 29.77 in 4.0 mi SSE 8.1 mph - N/A Rain Rain
4:24 AM 50.0 °F - 50.0 °F 100% 29.77 in 4.0 mi SSE 8.1 mph - N/A Rain Rain
4:33 AM 50.0 °F - 50.0 °F 100% 29.78 in 4.0 mi South 6.9 mph - N/A Rain Heavy Rain
4:37 AM 50.0 °F - 50.0 °F 100% 29.77 in 5.0 mi South 9.2 mph - N/A Rain Light Rain
4:55 AM 50.4 °F - 50.4 °F 100% 29.78 in 5.0 mi SSW 8.1 mph - 0.20 in Rain Rain
5:00 AM 50.0 °F - 50.0 °F 100% 29.78 in 4.0 mi SW 9.2 mph - N/A Rain Rain
5:12 AM 50.0 °F - 50.0 °F 100% 29.77 in 4.0 mi South 6.9 mph - N/A Rain Light Rain
5:55 AM 50.2 °F - 50.2 °F 100% 29.79 in 6.0 mi South 6.9 mph - 0.15 in Rain Light Rain
5:57 AM 50.0 °F - 50.0 °F 100% 29.79 in 6.0 mi South 8.1 mph - N/A Rain Light Rain
6:02 AM 50.0 °F - 50.0 °F 100% 29.78 in 9.0 mi South 8.1 mph - N/A   Overcast
6:07 AM 50.0 °F - 50.0 °F 100% 29.80 in 10.0 mi South 10.4 mph - N/A   Overcast
6:19 AM 50.0 °F - 50.0 °F 100% 29.80 in 10.0 mi West 11.5 mph - N/A   Overcast
6:25 AM 48.2 °F - 48.2 °F 100% 29.79 in 10.0 mi WSW 11.5 mph - N/A   Overcast
6:30 AM 48.2 °F - 48.2 °F 100% 29.79 in 10.0 mi WSW 11.5 mph - N/A   Overcast
6:31 AM 48.2 °F - 48.2 °F 100% 29.79 in 10.0 mi WSW 11.5 mph - N/A   Overcast
6:55 AM 47.1 °F - 46.9 °F 99% 29.78 in 10.0 mi SW 8.1 mph - 0.01 in   Overcast
7:21 AM 46.4 °F 42.4 °F 46.4 °F 100% 29.79 in 10.0 mi WSW 8.1 mph - N/A   Overcast
7:41 AM 46.4 °F 42.9 °F 46.4 °F 100% 29.78 in 10.0 mi SSW 6.9 mph - N/A   Overcast
7:52 AM 46.4 °F 41.9 °F 46.4 °F 100% 29.79 in 10.0 mi SW 9.2 mph - N/A   Overcast
7:55 AM 46.6 °F - 46.6 °F 100% 29.79 in 10.0 mi SW 11.5 mph - N/A   Overcast
8:55 AM 46.8 °F - 46.8 °F 100% 29.78 in 10.0 mi SW 11.5 mph - N/A   Overcast
9:07 AM 48.2 °F - 48.2 °F 100% 29.80 in 10.0 mi WSW 15.0 mph - N/A   Overcast
9:16 AM 48.2 °F - 46.4 °F 93% 29.80 in 10.0 mi West 16.1 mph - N/A   Overcast
9:23 AM 46.4 °F 38.3 °F 46.4 °F 100% 29.82 in 10.0 mi WSW 23.0 mph - N/A   Overcast
9:40 AM 46.4 °F 39.2 °F 46.4 °F 100% 29.81 in 10.0 mi West 18.4 mph - N/A   Overcast
9:55 AM 45.0 °F 39.7 °F 43.9 °F 96% 29.78 in 10.0 mi West 10.4 mph - N/A   Overcast
10:12 AM 44.6 °F 37.8 °F 42.8 °F 93% 29.82 in 10.0 mi WSW 15.0 mph 24.2 mph N/A   Overcast
10:14 AM 44.6 °F 37.4 °F 42.8 °F 93% 29.82 in 10.0 mi WSW 16.1 mph - N/A   Overcast
10:26 AM 42.8 °F 35.4 °F 41.0 °F 93% 29.83 in 10.0 mi West 15.0 mph - N/A   Overcast
10:55 AM 43.3 °F 35.2 °F 41.5 °F 93% 29.83 in 10.0 mi West 18.4 mph 23.0 mph N/A   Overcast
11:01 AM 42.8 °F 34.5 °F 41.0 °F 93% 29.83 in 10.0 mi WSW 18.4 mph - N/A   Overcast
11:23 AM 42.8 °F 35.1 °F 42.8 °F 100% 29.82 in 9.0 mi West 16.1 mph - N/A   Light Drizzle
11:27 AM 42.8 °F 34.8 °F 42.8 °F 100% 29.83 in 6.0 mi WSW 17.3 mph - N/A   Light Drizzle
11:31 AM 42.8 °F 34.3 °F 42.8 °F 100% 29.83 in 5.0 mi West 19.6 mph - N/A   Light Drizzle
11:36 AM 41.0 °F 32.5 °F 41.0 °F 100% 29.84 in 7.0 mi West 17.3 mph - N/A   Light Drizzle
11:39 AM 41.0 °F 32.2 °F 41.0 °F 100% 29.84 in 10.0 mi West 18.4 mph 25.3 mph N/A   Overcast
11:46 AM 41.0 °F 32.2 °F 41.0 °F 100% 29.83 in 10.0 mi West 18.4 mph 25.3 mph N/A   Overcast
11:55 AM 41.4 °F 33.3 °F 41.0 °F 99% 29.84 in 10.0 mi WSW 16.1 mph 24.2 mph 0.00 in   Overcast
12:04 PM 41.0 °F 33.1 °F 41.0 °F 100% 29.83 in 10.0 mi West 15.0 mph - N/A   Overcast
12:06 PM 41.0 °F 32.8 °F 41.0 °F 100% 29.84 in 10.0 mi West 16.1 mph - N/A   Overcast
12:11 PM 41.0 °F 33.5 °F 41.0 °F 100% 29.83 in 10.0 mi West 13.8 mph - N/A   Light Drizzle
12:22 PM 41.0 °F 32.5 °F 41.0 °F 100% 29.84 in 10.0 mi WSW 17.3 mph 23.0 mph N/A   Overcast
12:25 PM 41.0 °F 32.2 °F 41.0 °F 100% 29.84 in 10.0 mi WSW 18.4 mph 24.2 mph N/A   Overcast
12:35 PM 41.0 °F 32.5 °F 41.0 °F 100% 29.84 in 10.0 mi West 17.3 mph - N/A   Overcast
12:42 PM 41.0 °F 33.1 °F 41.0 °F 100% 29.84 in 10.0 mi West 15.0 mph - N/A   Overcast
12:51 PM 41.0 °F 33.1 °F 39.2 °F 93% 29.85 in 10.0 mi West 15.0 mph - N/A   Light Drizzle
12:55 PM 40.8 °F 32.0 °F 39.9 °F 97% 29.85 in 10.0 mi West 18.4 mph 24.2 mph 0.00 in   Light Drizzle
1:02 PM 41.0 °F 33.1 °F 39.2 °F 93% 29.86 in 10.0 mi West 15.0 mph 24.2 mph N/A   Overcast
1:30 PM 41.0 °F 32.2 °F 37.4 °F 87% 29.84 in 10.0 mi WSW 18.4 mph 25.3 mph N/A   Overcast
1:34 PM 41.0 °F 31.6 °F 39.2 °F 93% 29.85 in 10.0 mi WSW 20.7 mph 26.5 mph N/A   Overcast
1:42 PM 42.8 °F 34.3 °F 37.4 °F 81% 29.84 in 10.0 mi WSW 19.6 mph 26.5 mph N/A   Overcast
1:44 PM 42.8 °F 34.5 °F 37.4 °F 81% 29.84 in 10.0 mi WSW 18.4 mph - N/A   Overcast
1:46 PM 42.8 °F 34.8 °F 37.4 °F 81% 29.84 in 10.0 mi WSW 17.3 mph - N/A   Overcast
1:55 PM 42.1 °F 34.5 °F 36.9 °F 82% 29.83 in 10.0 mi WSW 15.0 mph - 0.00 in   Overcast
2:36 PM 42.8 °F 35.4 °F 35.6 °F 76% 29.83 in 10.0 mi WSW 15.0 mph - N/A   Overcast
2:55 PM 43.3 °F 35.8 °F 33.8 °F 69% 29.83 in 10.0 mi West 16.1 mph - N/A   Overcast
3:55 PM 42.6 °F 34.3 °F 33.3 °F 69% 29.86 in 10.0 mi West 18.4 mph - N/A   Overcast
4:45 PM 42.8 °F 34.8 °F 33.8 °F 70% 29.87 in 10.0 mi WSW 17.3 mph - N/A   Overcast
4:51 PM 41.0 °F 32.8 °F 33.8 °F 76% 29.87 in 10.0 mi West 16.1 mph - N/A   Overcast
4:55 PM 41.9 °F 33.7 °F 33.3 °F 71% 29.87 in 10.0 mi West 17.3 mph - N/A   Overcast
5:55 PM 40.8 °F 33.3 °F 32.2 °F 71% 29.90 in 10.0 mi WSW 13.8 mph - N/A   Mostly Cloudy
6:16 PM 41.0 °F 33.9 °F 32.0 °F 70% 29.92 in 10.0 mi West 12.7 mph - N/A   Overcast
6:23 PM 41.0 °F 33.5 °F 32.0 °F 70% 29.92 in 10.0 mi West 13.8 mph - N/A   Overcast
6:32 PM 41.0 °F 34.3 °F 32.0 °F 70% 29.93 in 10.0 mi West 11.5 mph - N/A   Overcast
6:34 PM 41.0 °F 34.7 °F 32.0 °F 70% 29.93 in 10.0 mi West 10.4 mph - N/A   Overcast
6:37 PM 41.0 °F 35.2 °F 32.0 °F 70% 29.93 in 10.0 mi West 9.2 mph - N/A   Overcast
6:55 PM 40.1 °F 34.7 °F 32.4 °F 74% 29.94 in 10.0 mi West 8.1 mph - N/A   Overcast
6:57 PM 39.2 °F 32.5 °F 32.0 °F 75% 29.94 in 10.0 mi West 10.4 mph - N/A   Overcast
7:55 PM 39.6 °F 33.5 °F 31.3 °F 72% 29.96 in 10.0 mi West 9.2 mph - N/A   Overcast
8:55 PM 39.4 °F 33.2 °F 31.8 °F 74% 29.98 in 10.0 mi West 9.2 mph - N/A   Overcast
9:55 PM 39.0 °F 34.0 °F 32.4 °F 77% 29.99 in 10.0 mi West 6.9 mph - N/A   Overcast
10:55 PM 38.7 °F 33.6 °F 32.5 °F 79% 30.01 in 10.0 mi West 6.9 mph - N/A   Overcast
11:55 PM 38.3 °F 33.2 °F 31.1 °F 75% 30.01 in 10.0 mi West 6.9 mph - N/A   Overcast